Location: Izdebno
(52.6670°N, 16.2170°E)
Time: 23:10:16
(UTC+02:00)

Vanguard 2 Rocket - Pass Details

Date: 23 February 2024
Orbit: 555 x 3307 km, 32.9° (Epoch: 21 April)

Event Time Altitude Azimuth Distance (km) Brightness Sun altitude
Rises 16:38:34 0° 242° (WSW) 5,120 13.6 5.3°
Reaches altitude 10° 16:41:51 10° 234° (SW) 4,474 12.5 4.9°
Maximum altitude 16:53:22 36° 174° (S) 3,775 10.3 3.2°
Drops below altitude 10° 17:09:24 10° 119° (ESE) 6,209 10.7 0.9°
Sets 17:15:03 0° 112° (ESE) 7,293 11.0 0.1°
